Location: Hope
(40.9110°N, 74.9680°W)
Time: 08:54:48
(UTC-05:00)

Envisat - Pass Details

Date: 02 February 2019
Orbit: 764 x 766 km, 98.2° (Epoch: 22 February)

Event Time Altitude Azimuth Distance (km) Brightness Sun altitude
Rises 19:58:30 0° 209° (SSW) 3,219 6.5 -30.5°
Reaches altitude 10° 20:01:37 10° 229° (SW) 2,298 6.0 -31.1°
Maximum altitude 20:04:49 17° 269° (W) 1,879 5.7 -31.7°
Drops below altitude 10° 20:08:01 10° 308° (NW) 2,308 6.1 -32.3°
Sets 20:11:11 0° 329° (NNW) 3,240 6.7 -32.9°
